YAOGAN 23

Last updated on Wed Apr 24 2024 00:02:24 GMT+0000 (Coordinated Universal Time)

1 40305U 14071A 24114.55886697 .00052347 00000+0 10774-2 0 9992 2 40305 97.6887 96.0940 0002575 112.4967 247.6554 15.45776641523904

Satellite not in orbit

YAOGAN 23